Regional Weather Roundup
Issued by NWS Newport/Morehead, NC

Current Version | Previous Version | Graphics & Text | Print | Product List | Glossary On
Versions: 1 2 3 4 5 6 7 8 9 10 11 12 13 14 15 16 17 18 19 20 21 22 23 24 25 26 27 28 29 30 31 32 33 34 35 36 37 38 39 40 41 42 43 44 45 46 47 48 49 50
000 ASUS42 KMHX 180212 RWRMHX WEATHER ROUNDUP FOR EASTERN NORTH CAROLINA NATIONAL WEATHER SERVICE NEWPORT/MOREHEAD CITY NC 900 PM EST TUE JAN 17 2017 NOTE: "FAIR" INDICATES FEW OR NO CLOUDS BELOW 12,000 FEET WITH NO SIGNIFICANT WEATHER AND/OR OBSTRUCTIONS TO VISIBILITY NCZ015>017-031-032-045>047-102-103-180300- NORTH COAST CITY SKY/WX TMP DP RH WIND PRES REMARKS EDENTON CLOUDY 60 56 85 SW7 30.09S ELIZABETH CITY LGT RAIN 58 54 86 S12 30.08S KITTY HAWK NOT AVBL MANTEO LGT RAIN 53 53 100 SW10 30.10R $$ NCZ045>047-081-094-103-104-180300- CENTRAL COAST CITY SKY/WX TMP DP RH WIND PRES REMARKS FRISCO CLOUDY 60 57 89 SW12 30.11S FOG $$ NCZ095-097-098-100-101-180300- SOUTHERN COAST CITY SKY/WX TMP DP RH WIND PRES REMARKS BEAUFORT MOCLDY 62 60 93 SW10 30.14F CEDAR ISLAND NOT AVBL JACKSONVILLE PTCLDY 60 57 89 SW7 30.13F PINEY ISLAND MOCLDY N/A N/A N/A SW8 30.12F WILMINGTON MOCLDY 59 57 93 SW6 30.16S $$ NCZ011>013-027>030-043-044-078>080-089-090>093-098-180300- COASTAL PLAIN CITY SKY/WX TMP DP RH WIND PRES REMARKS AHOSKIE N/A 57 55 94 S5 30.06F CLINTON CLOUDY 61 57 88 S3 30.13S ELIZABETHTOWN PTCLDY 60 58 90 S5 30.13F GOLDSBORO CLOUDY 61 60 98 SW10 30.09F GREENVILLE CLOUDY 61 55 82 SW7 30.11S HAVELOCK PTCLDY 59 57 93 SW7 30.14F KENANSVILLE PTCLDY 57 55 94 CALM 30.13S KINSTON CLOUDY 61 55 82 SW9 30.11F NEW BERN MOCLDY 58 55 90 SW5 30.13F RICHLANDS PTCLDY 56 55 97 S6 30.14S ROCKY MOUNT MOCLDY 59 56 89 S9 30.08F WASHINGTON MOCLDY 62 55 80 SW9 30.10F WHITEVILLE PTCLDY 59 56 91 S5 30.15F $$ AMZ130-135-150-152-154-156-158-170-250-252-270-ANZ085-086-088-633-658-670-180300- MARINE OBSERVATIONS STATION/POSITION TIME TEMP WIND PRES WAVE SWELL AIR SEA DIR/SP/G HT/PER HT/PER (UTC) (F) (DEG/KT/KT) (MB) (FT/S) (FT/S) CHESAPEAKE LIGHT NOT AVBL 64 E VA BEACH 0050 58 56 210/ 14/ 17 1017.7 3/ 4 2/ 8 DUCK 0148 58 44 210/ 11/ 14 1018.1 2 E DUCK 0130 45 N/A 2/ 8 OREGON INLET 0142 54 49 210/ 17/ 20 1018.8 13E OREGON INLT NOT AVBL HATTERAS CG 0148 62 54 220/ 10/ 13 1019.4 DIAMOND BUOY 0050 70 73 230/ 17/ 21 1019.6 3/ 4 2/ 9 CAPE LOOKOUT 0100 64 220/ 11/ 14 1020.3 BEAUFORT LAB 0148 60 50 210/ 4/ 6 1019.4 30 SE NEW RVR IN 0108 62 63 230/ 10/ 14 1021.4 30 SE NEW RVR IN 0143 63 N/A 3/10 27 SE WRIGHTSVLE 0108 68 69 200/ 12/ 16 1021.0 5 SE WRIGHTSVLE 0108 57 220/ 6/ 10 1021.2 225 S CAPE HAT 0050 72 72 210/ 12/ 12 1024.1 3/ 8 2/ 8 41 SE CHARLESTON 0050 70 71 220/ 12/ 14 1022.5 2/ 8 2/ 8 $$

USA.gov is the U.S. government's official web portal to all federal, state and local government web resources and services.